x

West Santa Barbara 38 Nm West Of Santa Barbara, Ca (46054) Weather Station

11:20 - Mon 29th May 2017 All times are PDT. -7 hours from GMT.

  • Wind
    20mph, 25mph gusts
  • Sea Temp 54°f
  • Air Temp 53°f
  • Sea Pressure 1014.3mb
  • West Santa Barbara  38 Nm West Of Santa Barbara, Ca
  • West Santa Barbara  38 Nm West Of Santa Barbara, Ca

More Historic Weather Station data

Upgrade to MSW Pro to gain access to the past 30 days of data for over 8000 Wavebouys and Weather Stations around the globe.

Join Pro

Comparision Forecast

View Surf forecast
   
lun. 05/29 11:20  -   -   -  20 25 mph 1014.3mb 54f 53f
11:10  -   -   -  20 25 mph 1014.3mb 54f 53f
11:00  -   -   -  20 25 mph 1014.3mb 54f 53f
10:50 5.5ft 7s  -  22 29 mph 1014.3mb 54f 53f
10:40  -   -   -  22 29 mph 1014mb 54f 53f
10:30  -   -   -  22 29 mph 1014.1mb 54f 53f
10:20  -   -   -  22 27 mph 1014.1mb 54f 53f
10:10  -   -   -  22 27 mph 1014.3mb 54f 53f
10:00  -   -   -  22 27 mph 1014.1mb 54f 53f
9:50 5.5ft 7s  -  22 29 mph 1014.1mb 54f 53f
9:40  -   -   -  20 27 mph 1014mb 54f 53f
9:30  -   -   -  22 27 mph 1014.1mb 54f 53f
9:20  -   -   -  22 27 mph 1014mb 54f 53f
9:10  -   -   -  22 29 mph 1014.1mb 54f 53f
9:00  -   -   -  25 29 mph 1014mb 54f 53f
8:40  -   -   -  22 29 mph 1013.6mb 54f 53f
8:30  -   -   -  22 27 mph 1013.5mb 54f 53f
8:20  -   -   -  22 29 mph 1013.5mb 54f 53f
8:10  -   -   -  25 29 mph 1013.5mb 54f 53f
8:00  -   -   -  25 29 mph 1013.4mb 54f 53f
7:40  -   -   -  25 31 mph 1013.4mb 54f 53f
7:30  -   -   -  25 29 mph 1013.5mb 54f 53f
7:20  -   -   -  25 29 mph 1013.5mb 54f 53f
7:10  -   -   -  22 29 mph 1013.5mb 54f 53f
7:00  -   -   -  25 31 mph 1013.5mb 54f 53f
6:50 6ft 7s  -  25 29 mph 1013.4mb 54f 53f
6:40  -   -   -  27 31 mph 1013.4mb 54f 53f
6:30  -   -   -  25 31 mph 1013.3mb 54f 53f
6:20  -   -   -  25 31 mph 1013.4mb 54f 53f
6:10  -   -   -  25 31 mph 1013.3mb 54f 53f
6:00  -   -   -  27 34 mph 1013.1mb 54f 53f
5:40  -   -   -  27 34 mph 1013.1mb 54f 53f
5:30  -   -   -  27 34 mph 1013mb 54f 53f
5:20  -   -   -  27 34 mph 1013mb 54f 53f
5:10  -   -   -  27 34 mph 1013mb 54f 53f
5:00  -   -   -  25 34 mph 1013.1mb 54f 53f
4:40  -   -   -  29 36 mph 1013.1mb 54f 53f
4:30  -   -   -  27 31 mph 1013.1mb 54f 53f
4:20  -   -   -  25 31 mph 1013.4mb 54f 53f
4:10  -   -   -  25 31 mph 1013.5mb 54f 53f
4:00  -   -   -  25 31 mph 1013.5mb 54f 53f
3:40  -   -   -  25 31 mph 1013.5mb 54f 53f
3:30  -   -   -  25 29 mph 1013.6mb 54f 53f
3:20  -   -   -  25 31 mph 1013.6mb 54f 53f
3:10  -   -   -  25 31 mph 1013.6mb 54f 53f
3:00  -   -   -  25 29 mph 1013.6mb 54f 53f
2:40  -   -   -  25 31 mph 1013.8mb 54f 53f
2:30  -   -   -  25 31 mph 1014mb 54f 53f
2:20  -   -   -  22 29 mph 1014mb 54f 53f
2:10  -   -   -  25 31 mph 1014.3mb 54f 53f
2:00  -   -   -  25 31 mph 1014.4mb 54f 53f
1:50 6ft 7s  -  27 34 mph 1014.3mb 54f 53f
1:40  -   -   -  27 31 mph 1014.4mb 54f 54f
1:30  -   -   -  25 34 mph 1014.4mb 54f 54f
1:20  -   -   -  27 31 mph 1014.4mb 54f 54f
1:10  -   -   -  27 31 mph 1014.3mb 54f 54f
1:00  -   -   -  25 31 mph 1014.5mb 54f 54f
12:40  -   -   -  27 31 mph 1014.5mb 54f 54f
12:30  -   -   -  27 31 mph 1014.5mb 54f 54f
12:20  -   -   -  25 31 mph 1014.5mb 54f 54f
12:10  -   -   -  25 29 mph 1014.8mb 54f 54f
12:00  -   -   -  25 31 mph 1015mb 54f 54f
dim. 05/28 11:40  -   -   -  25 31 mph 1015.3mb 54f 54f
11:30  -   -   -  25 31 mph 1015.4mb 54f 54f
11:20  -   -   -  25 29 mph 1015.4mb 54f 54f
11:10  -   -   -  25 31 mph 1015.5mb 54f 54f
11:00  -   -   -  25 31 mph 1015.5mb 54f 54f
10:50 6ft 5s  -  25 34 mph 1015.6mb 54f 55f
10:40  -   -   -  25 29 mph 1015.6mb 55f 55f
10:30  -   -   -  25 31 mph 1015.6mb 55f 55f
10:20  -   -   -  25 31 mph 1015.6mb 54f 55f
10:10  -   -   -  25 29 mph 1015.6mb 55f 55f
10:00  -   -   -  27 34 mph 1015.6mb 55f 55f
9:50 5ft 7s  -  25 31 mph 1015.6mb 55f 55f
9:40  -   -   -  25 31 mph 1015.5mb 55f 55f
9:30  -   -   -  27 31 mph 1015.3mb 55f 55f
9:20  -   -   -  25 31 mph 1015.3mb 55f 55f
9:10  -   -   -  25 31 mph 1015.4mb 55f 55f
9:00  -   -   -  25 31 mph 1015.3mb 55f 55f
8:50 5ft 6s 5s 27 31 mph 1015.1mb 55f 55f
8:40  -   -   -  25 31 mph 1015mb 55f 55f
8:30  -   -   -  25 31 mph 1015mb 55f 55f
8:20  -   -   -  25 34 mph 1015mb 55f 55f
8:10  -   -   -  27 31 mph 1014.9mb 55f 55f
8:00  -   -   -  27 31 mph 1014.9mb 55f 55f
7:50 5ft 5s 5s 27 31 mph 1014.8mb 55f 55f
7:40 5ft  -  5s 25 31 mph 1014.6mb 55f 55f
7:30  -   -   -  25 31 mph 1014.5mb 55f 55f
7:20  -   -   -  25 31 mph 1014.6mb 55f 55f
7:10  -   -   -  25 31 mph 1014.6mb 55f 55f
7:00  -   -   -  25 34 mph 1014.6mb 55f 55f
6:50 5ft 7s  -  27 31 mph 1014.8mb 55f 55f
6:40  -   -   -  25 31 mph 1014.8mb 55f 55f
6:30  -   -   -  25 34 mph 1014.9mb 55f 55f
6:20  -   -   -  25 31 mph 1015mb 55f 55f
6:10  -   -   -  27 31 mph 1015mb 55f 55f
6:00  -   -   -  27 31 mph 1015mb 55f 55f
5:50 5ft 6s 5s 27 31 mph 1015.3mb 55f 55f
5:40 5ft  -  5s 27 34 mph 1015.4mb 55f 55f
5:30  -   -   -  27 31 mph 1015.3mb 55f 55f
5:20  -   -   -  27 34 mph 1015.3mb 55f 55f
5:10  -   -   -  27 31 mph 1015.3mb 55f 55f
5:00  -   -   -  25 31 mph 1015.4mb 55f 55f
4:50 5ft 6s  -  25 31 mph 1015.4mb 55f 55f
4:40  -   -   -  25 34 mph 1015.5mb 55f 55f
4:30  -   -   -  25 31 mph 1015.5mb - 55f
4:20  -   -   -  27 31 mph 1015.6mb 55f 55f
4:10  -   -   -  25 29 mph 1015.9mb 55f 55f
4:00  -   -   -  25 31 mph 1015.9mb - 55f
3:50 4.5ft 6s  -  25 31 mph 1016mb 55f 55f
3:40  -   -   -  25 31 mph 1016mb 55f 55f
3:30  -   -   -  25 31 mph 1017.5mb - 55f
3:20  -   -   -  22 29 mph 1016.1mb 55f 55f
3:10  -   -   -  25 29 mph 1016.3mb 55f 55f
3:00  -   -   -  22 29 mph 1016.1mb 55f 55f
2:50 4.5ft 6s 5s 25 29 mph 1016.3mb 55f 55f
2:40  -   -   -  25 31 mph 1016.5mb 55f 55f
2:30  -   -   -  22 27 mph 1016.5mb 55f 55f
2:20  -   -   -  22 27 mph 1016.5mb 55f 55f
2:10  -   -   -  22 27 mph 1016.6mb 55f 55f
2:00  -   -   -  22 27 mph 1016.8mb 55f 55f
1:40  -   -   -  22 27 mph 1017mb 55f 55f
1:30  -   -   -  20 27 mph 1017mb 55f 55f
1:20  -   -   -  22 29 mph 1017mb 55f 55f
1:10  -   -   -  22 29 mph 1017mb 55f 55f
1:00  -   -   -  22 29 mph 1017mb 55f 55f
12:50 5ft 6s  -  22 29 mph 1017mb 55f 55f
12:40  -   -   -  22 27 mph 1017mb 55f 55f
12:30  -   -   -  22 25 mph 1017.3mb 55f 55f
12:20  -   -   -  22 25 mph 1017mb 55f 55f
12:10  -   -   -  22 27 mph 1017.3mb 55f 55f
12:00  -   -   -  22 27 mph 1017.1mb - 55f
11:50 5ft 6s  -  20 27 mph 1017.1mb 55f 55f
11:40  -   -   -  20 27 mph 1017.1mb 55f 55f
11:30  -   -   -  20 27 mph 1017.3mb 55f 55f
11:20  -   -   -  22 25 mph 1017.3mb 55f 55f
11:10  -   -   -  20 25 mph 1017.3mb 55f 55f
11:00  -   -   -  20 25 mph 1017.3mb 55f 54f
10:50 5ft 5s  -  20 27 mph 1017.4mb 55f 54f
10:40  -   -   -  20 25 mph 1017.5mb 55f 55f
10:30  -   -   -  20 25 mph 1017.5mb 55f 54f
10:20  -   -   -  20 25 mph 1017.5mb 55f 54f
10:10  -   -   -  20 27 mph 1017.5mb 55f 54f
10:00  -   -   -  22 27 mph 1017.5mb 55f 54f
9:40  -   -   -  20 25 mph 1017.4mb 55f 54f
9:30  -   -   -  22 27 mph 1017.4mb 55f 54f
9:20  -   -   -  20 25 mph 1017.5mb 55f 54f
9:10  -   -   -  22 27 mph 1017.5mb 55f 55f
9:00  -   -   -  22 27 mph 1017.4mb - 55f
8:40  -   -   -  22 27 mph 1017.4mb 55f 55f
8:30  -   -   -  22 27 mph 1017.4mb 55f 55f
8:20  -   -   -  22 27 mph 1017.3mb 55f 55f
8:10  -   -   -  22 27 mph 1017.1mb 55f 55f
8:00  -   -   -  22 27 mph 1017mb 55f 55f
7:50 4.5ft 10s 5s 22 27 mph 1017mb 55f 55f
7:40 4.5ft  -  5s 22 25 mph 1017mb 55f 55f
7:30  -   -   -  22 27 mph 1016.9mb 55f 55f
7:20  -   -   -  22 27 mph 1016.9mb 55f 55f
7:10  -   -   -  22 27 mph 1016.8mb 55f 55f
7:00  -   -   -  20 27 mph 1016.8mb 55f 55f
6:50 4.5ft 5s  -  20 27 mph 1016.8mb 55f 55f
6:40  -   -   -  20 27 mph 1016.6mb 55f 55f
6:30  -   -   -  20 27 mph 1016.6mb 55f 55f
6:20  -   -   -  22 27 mph 1016.6mb 55f 55f
6:10  -   -   -  22 27 mph 1016.5mb 55f 55f
6:00  -   -   -  22 27 mph 1016.5mb 55f 55f
5:50 4.5ft 5s  -  22 27 mph 1016.6mb 55f 55f
5:40  -   -   -  22 27 mph 1016.5mb 55f 55f
5:30  -   -   -  22 29 mph 1016.4mb 55f 55f
5:20  -   -   -  20 27 mph 1016.4mb 55f 55f
5:10  -   -   -  20 27 mph 1016.4mb 55f 55f
5:00  -   -   -  20 25 mph 1016.3mb 55f 55f
4:40  -   -   -  22 31 mph 1016.1mb 55f 55f
4:30  -   -   -  22 31 mph 1016mb 55f 55f
4:20  -   -   -  18 25 mph 1016mb 55f 55f
4:10  -   -   -  18 22 mph 1016mb 55f 55f
4:00  -   -   -  18 22 mph 1016.1mb 55f 55f
3:40  -   -   -  18 22 mph 1016.1mb 55f 55f
3:30  -   -   -  18 22 mph 1016.1mb 55f 55f
3:20  -   -   -  18 22 mph 1016.3mb - 55f
3:10  -   -   -  18 22 mph 1016.3mb 55f 55f
3:00  -   -   -  18 25 mph 1016.4mb 55f 55f
2:50 4ft 10s  -  18 22 mph 1016.4mb 55f 55f
2:40  -   -   -  18 22 mph 1016.5mb 55f 55f
2:30  -   -   -  18 22 mph 1016.6mb 55f 55f
2:20  -   -   -  18 20 mph 1016.9mb 55f 55f
2:10  -   -   -  18 22 mph 1017mb 55f 55f
2:00  -   -   -  18 22 mph 1017mb 55f 55f
1:40  -   -   -  20 22 mph 1017mb 55f 56f
1:30  -   -   -  18 22 mph 1017mb 55f 56f
1:20  -   -   -  18 22 mph 1017.1mb 55f 56f
1:10  -   -   -  18 22 mph 1017.1mb 55f 56f
1:00  -   -   -  18 22 mph 1017.3mb 55f 56f
12:40  -   -   -  18 22 mph 1017.4mb 55f 56f
12:30  -   -   -  18 22 mph 1017.3mb 55f 56f
12:20  -   -   -  18 22 mph 1017.4mb 55f 56f
12:10  -   -   -  18 22 mph 1017.5mb 55f 56f
12:00  -   -   -  18 22 mph 1017.5mb 55f 56f
sam. 05/27 11:50 4ft 13s 5s 20 22 mph 1017.5mb 55f 56f
11:40 4ft  -  5s 20 25 mph 1017.8mb 56f 56f
11:30  -   -   -  20 25 mph 1017.8mb 56f 56f
11:20  -   -   -  20 25 mph 1017.9mb 56f 56f
11:10  -   -   -  20 25 mph 1017.9mb 56f 56f
11:00  -   -   -  18 20 mph 1017.9mb 56f 56f
10:50 4.5ft 10s  -  18 22 mph 1018mb 56f 56f
10:30  -   -   -  18 20 mph 1017.9mb 56f 56f
10:20  -   -   -  20 25 mph 1017.9mb 56f 56f
10:10  -   -   -  20 25 mph 1017.9mb 56f 56f
10:00  -   -   -  20 27 mph 1017.8mb 56f 56f
9:50 4ft 10s  -  20 27 mph 1017.5mb 56f 56f
9:40  -   -   -  20 25 mph 1017.5mb 56f 56f
9:30  -   -   -  20 25 mph 1017.4mb 56f 56f
9:20  -   -   -  20 25 mph 1017.3mb 56f 56f
9:10  -   -   -  20 25 mph 1017.1mb 56f 56f
9:00  -   -   -  20 25 mph 1017.3mb 56f 57f
8:40  -   -   -  20 25 mph 1017.1mb 56f 56f
8:30  -   -   -  20 27 mph 1017.1mb 56f 57f
8:20  -   -   -  20 25 mph 1017.1mb 56f 56f
8:10  -   -   -  20 25 mph 1017.3mb 56f 56f
8:00  -   -   -  18 22 mph 1017.4mb 56f 56f
7:50 3.5ft 14s  -  18 22 mph 1017.3mb 56f 56f
7:40  -   -   -  20 22 mph 1017.3mb 56f 56f
7:30  -   -   -  18 22 mph 1017.3mb 56f 56f
7:20  -   -   -  18 22 mph 1017.4mb 56f 57f
7:10  -   -   -  18 22 mph 1017.4mb 56f 57f
7:00  -   -   -  18 22 mph 1017.5mb 56f -
6:50 3.5ft 13s  -  18 20 mph 1017.5mb 56f 57f
6:40  -   -   -  18 22 mph 1017.5mb 56f 57f
6:30  -   -   -  18 22 mph 1017.5mb 56f 57f
6:20  -   -   -  18 20 mph 1017.5mb 56f 57f
6:10  -   -   -  18 20 mph 1017.5mb 56f 57f
6:00  -   -   -  18 22 mph 1017.6mb 56f 57f
5:50 3.5ft 10s 5s 18 20 mph 1017.8mb 56f 57f
5:40 3.5ft  -  5s 18 20 mph 1017.9mb 56f 56f
5:30  -   -   -  18 20 mph 1018mb 56f 56f
5:20  -   -   -  18 22 mph 1018mb 56f 57f
5:10  -   -   -  18 20 mph 1018mb 56f 57f
5:00  -   -   -  18 20 mph 1018mb 56f 57f
4:40  -   -   -  18 22 mph 1017.9mb 56f 57f
4:30  -   -   -  18 22 mph 1017.9mb 56f 57f
4:20  -   -   -  18 20 mph 1017.9mb 56f 57f
4:10  -   -   -  18 22 mph 1017.9mb 56f 57f
4:00  -   -   -  18 22 mph 1018mb 57f 57f
3:40  -   -   -  18 20 mph 1018.1mb 57f 57f
3:30  -   -   -  16 20 mph 1018.3mb 57f 57f
3:20  -   -   -  16 20 mph 1018.3mb 57f 57f
3:10  -   -   -  16 18 mph 1018.3mb 57f 56f
3:00  -   -   -  16 18 mph 1018.4mb 57f 56f
2:50 3ft 14s  -  16 18 mph 1018.4mb 57f 56f
2:40  -   -   -  16 18 mph 1018.5mb 57f 56f
2:30  -   -   -  16 18 mph 1018.4mb 56f 56f
2:20  -   -   -  16 20 mph 1018.4mb 56f 56f
2:10  -   -   -  16 20 mph 1018.4mb 56f 56f
2:00  -   -   -  16 20 mph 1018.3mb 56f 56f
1:40  -   -   -  16 20 mph 1018.5mb 56f 56f
1:30  -   -   -  18 22 mph 1020.1mb - 56f
1:20  -   -   -  18 20 mph 1018.6mb 56f 56f
1:10  -   -   -  16 20 mph 1018.6mb 56f 56f
1:00  -   -   -  16 20 mph 1018.8mb 56f 56f
12:50 3.5ft 14s  -  16 20 mph 1018.9mb 56f 56f
12:40  -   -   -  18 20 mph 1018.9mb 56f 56f
12:30  -   -   -  16 20 mph 1018.9mb 56f 56f
12:20  -   -   -  18 20 mph 1018.9mb 56f 56f
12:10  -   -   -  18 20 mph 1018.8mb 56f 56f
12:00  -   -   -  18 20 mph 1018.8mb - 56f
11:40  -   -   -  18 20 mph 1018.9mb 56f 56f
11:30  -   -   -  18 20 mph 1019mb 56f 56f
11:20  -   -   -  18 20 mph 1018.8mb 56f 56f
11:10  -   -   -  18 20 mph 1018.8mb 56f 56f
11:00  -   -   -  18 22 mph 1018.8mb 56f 56f
10:40  -   -   -  18 22 mph 1018.5mb 56f 56f
10:30  -   -   -  18 20 mph 1018.6mb 56f 56f
10:20  -   -   -  18 22 mph 1018.5mb 56f 56f
10:10  -   -   -  18 22 mph 1018.5mb 56f 56f
10:00  -   -   -  18 20 mph 1018.5mb 56f 56f
9:50 3.5ft 10s  -  16 20 mph 1018.6mb 56f 56f
9:40  -   -   -  16 20 mph 1018.6mb 56f 56f
9:30  -   -   -  16 20 mph 1018.6mb 56f 56f
9:20  -   -   -  16 20 mph 1018.5mb 56f 56f
9:10  -   -   -  16 20 mph 1018.5mb 56f 56f
9:00  -   -   -  16 20 mph 1018.5mb 56f 56f
8:40  -   -   -  18 20 mph 1018.4mb 56f 56f
8:30  -   -   -  18 22 mph 1018.3mb 56f 55f
8:20  -   -   -  16 20 mph 1018.1mb 56f 55f
8:10  -   -   -  18 20 mph 1018.1mb 56f 55f
8:00  -   -   -  18 20 mph 1018mb 56f 55f
7:50 3.5ft 14s  -  18 20 mph 1018mb 56f 55f
7:40  -   -   -  18 20 mph 1017.9mb 56f 55f
7:30  -   -   -  18 20 mph 1017.6mb 56f 56f
7:20  -   -   -  16 20 mph 1017.5mb 56f 56f
7:10  -   -   -  16 20 mph 1017.5mb 56f 56f
7:00  -   -   -  16 20 mph 1017.3mb 56f 56f
6:40  -   -   -  16 20 mph 1017mb 56f 56f
6:30  -   -   -  18 22 mph 1018.3mb - 56f
6:20  -   -   -  16 18 mph 1016.9mb - 56f
6:10  -   -   -  16 20 mph 1016.8mb 56f 56f
6:00  -   -   -  16 20 mph 1016.6mb - 56f
5:50 3.5ft 11s  -  16 20 mph 1016.5mb 56f 56f
5:40  -   -   -  16 20 mph 1016.5mb 56f 56f
5:30  -   -   -  18 20 mph 1016.4mb 56f 55f
5:20  -   -   -  16 20 mph 1016.4mb 56f 55f
5:10  -   -   -  16 20 mph 1016.4mb 56f 55f
5:00  -   -   -  16 20 mph 1016.3mb 56f 55f
4:50 3.5ft 10s  -  16 20 mph 1016.4mb 56f 55f
4:40  -   -   -  16 20 mph 1016.3mb 56f 55f
4:30  -   -   -  18 20 mph 1016.4mb 56f 56f
4:20  -   -   -  18 20 mph 1016.3mb 56f 56f
4:10  -   -   -  16 20 mph 1016.3mb 56f 56f
4:00  -   -   -  16 20 mph 1016.3mb 56f 56f
3:50 3.5ft 10s  -  16 20 mph 1016.4mb 57f 56f
3:40  -   -   -  16 20 mph 1016.4mb 57f 55f
3:30  -   -   -  16 18 mph 1016.4mb 57f 56f
3:20  -   -   -  16 20 mph 1016.4mb 57f 56f
3:10  -   -   -  16 18 mph 1016.5mb 57f 56f
3:00  -   -   -  16 18 mph 1016.5mb 57f 56f
2:40  -   -   -  16 18 mph 1016.5mb 57f 56f
2:30  -   -   -  16 18 mph 1016.5mb 57f 56f
2:20  -   -   -  13 18 mph 1016.5mb 57f 56f
2:10  -   -   -  13 16 mph 1016.5mb 57f 56f
2:00  -   -   -  13 16 mph 1016.5mb 57f 56f
1:50 3.5ft 10s  -  13 18 mph 1016.5mb 57f 55f
1:40  -   -   -  13 16 mph 1016.5mb 57f 55f
1:30  -   -   -  13 16 mph 1016.5mb 57f 55f
1:20  -   -   -  13 16 mph 1016.5mb 56f 55f
1:10  -   -   -  13 16 mph 1016.5mb 56f 55f
1:00  -   -   -  13 16 mph 1016.5mb 56f 55f
12:40  -   -   -  13 16 mph 1016.6mb 56f 55f
12:30  -   -   -  13 16 mph 1016.8mb 56f 55f
12:20  -   -   -  11 13 mph 1016.6mb 56f 55f
12:10  -   -   -  11 16 mph 1016.6mb 56f 55f
12:00  -   -   -  11 13 mph 1016.6mb 56f 55f
ven. 05/26 11:50 3.5ft 10s  -  13 16 mph 1016.5mb 56f 55f
11:40  -   -   -  13 16 mph 1016.6mb 56f 55f
11:30  -   -   -  13 16 mph 1016.6mb 55f 56f
11:20  -   -   -  13 16 mph 1016.8mb 55f 56f
11:10  -   -   -  13 18 mph 1016.8mb 55f 56f
11:00  -   -   -  13 16 mph 1016.8mb 55f 56f
10:50 3.5ft 10s  -  13 16 mph 1016.6mb 55f 56f
10:40  -   -   -  13 16 mph 1016.8mb 55f 55f
10:30  -   -   -  13 16 mph 1016.6mb 54f 55f
10:20  -   -   -  11 16 mph 1016.8mb 54f 55f
10:10  -   -   -  11 13 mph 1016.6mb 54f 55f
10:00  -   -   -  13 16 mph 1016.5mb 55f 56f
9:40  -   -   -  13 16 mph 1016.4mb 55f 56f
9:30  -   -   -  13 16 mph 1016.3mb 55f 56f
9:20  -   -   -  13 16 mph 1016.1mb 55f 56f
9:10  -   -   -  13 16 mph 1016mb 55f 56f
9:00  -   -   -  13 16 mph 1016mb 55f 56f
8:40  -   -   -  13 16 mph 1016mb 55f 56f
8:20  -   -   -  11 16 mph 1015.9mb 55f 56f
8:10  -   -   -  11 16 mph 1015.9mb 55f 56f
8:00  -   -   -  11 13 mph 1015.9mb 55f 56f
7:50 3.5ft 11s  -  11 13 mph 1015.9mb 56f 56f
7:40  -   -   -  11 13 mph 1015.9mb 56f 56f
7:30  -   -   -  11 13 mph 1015.9mb 56f 56f
7:20  -   -   -  11 16 mph 1015.8mb 56f 57f
7:10  -   -   -  11 13 mph 1015.6mb 56f 57f
7:00  -   -   -  11 13 mph 1015.8mb 56f 57f
6:50 3.5ft 11s  -  11 16 mph 1015.8mb 56f 57f
6:40  -   -   -  11 13 mph 1015.6mb 57f 57f
6:30  -   -   -  11 13 mph 1015.6mb 57f 57f
6:10  -   -   -  11 13 mph 1017.2mb 57f 57f
6:00  -   -   -  11 13 mph 1015.9mb 57f 57f
5:50 3.5ft 12s 7s 9 11 mph 1016mb 57f 57f
5:40 3.5ft  -  7s 9 11 mph 1016mb 57f 57f
5:30  -   -   -  9 11 mph 1016mb 56f 57f
5:20  -   -   -  9 13 mph 1015.9mb 57f 57f
5:10  -   -   -  11 13 mph 1015.9mb 57f 57f
5:00  -   -   -  9 11 mph 1015.8mb 57f 57f
4:50 3.5ft 11s  -  9 11 mph 1015.8mb 57f 57f
4:40  -   -   -  9 11 mph 1015.8mb 57f 57f
4:30  -   -   -  11 11 mph 1015.9mb 57f 57f
4:20  -   -   -  9 11 mph 1015.9mb 57f 57f
4:10  -   -   -  9 11 mph 1015.9mb 57f 57f
4:00  -   -   -  9 11 mph 1016mb 57f 57f
3:40  -   -   -  9 11 mph 1016mb 57f 57f
3:30  -   -   -  9 11 mph 1016mb 57f 57f
3:20  -   -   -  9 11 mph 1016mb 57f 57f
3:10  -   -   -  9 11 mph 1016mb 57f 57f
3:00  -   -   -  9 9 mph 1016mb 57f 57f
2:40  -   -   -  7 9 mph 1016.1mb 57f 57f
2:30  -   -   -  7 9 mph 1016.3mb 57f 57f
2:20  -   -   -  7 9 mph 1016.4mb 57f 57f
2:00  -   -   -  7 9 mph 1016.4mb 57f 56f
1:40  -   -   -  7 9 mph 1016.4mb 56f 56f
1:30  -   -   -  7 9 mph 1016.5mb 56f 56f
1:20  -   -   -  7 9 mph 1016.5mb 56f 56f
1:10  -   -   -  7 9 mph 1016.5mb 56f 56f
1:00  -   -   -  7 9 mph 1016.5mb 56f 56f
12:40  -   -   -  7 9 mph 1016.5mb 56f 56f
12:30  -   -   -  7 9 mph 1016.4mb 56f 56f
12:20  -   -   -  7 9 mph 1016.3mb 56f 56f
12:10  -   -   -  7 9 mph 1016.3mb - 56f
12:00  -   -   -  7 9 mph 1016.1mb 56f 56f
11:50 4.5ft 11s  -  7 9 mph 1016mb 56f 56f
11:40  -   -   -  7 9 mph 1016mb 56f 56f
11:30  -   -   -  7 9 mph 1015.9mb 56f 56f
11:20  -   -   -  4 7 mph 1015.9mb 55f 56f
11:10  -   -   -  7 7 mph 1015.8mb 56f 56f
11:00  -   -   -  4 7 mph 1015.8mb 56f 56f
10:30  -   -   -  4 7 mph 1015.6mb 55f 56f
10:20  -   -   -  4 7 mph 1015.6mb 55f 56f
10:10  -   -   -  4 4 mph 1015.5mb 55f 56f
10:00  -   -   -  4 7 mph 1015.5mb 56f 56f
9:50 4ft 11s  -  4 7 mph 1015.4mb 56f 56f
9:40  -   -   -  4 7 mph 1015.3mb 56f 56f
9:30  -   -   -  4 7 mph 1015.1mb 55f 56f
9:20  -   -   -  4 7 mph 1015.3mb 55f 56f
9:10  -   -   -  7 7 mph 1015.1mb 55f 55f
9:00  -   -   -  7 9 mph 1015mb 55f 55f
8:40  -   -   -  4 7 mph 1014.9mb 55f 55f
8:30  -   -   -  4 7 mph 1014.9mb 55f 55f
8:20  -   -   -  4 7 mph 1014.8mb 55f 55f
8:10  -   -   -  4 7 mph 1014.5mb 55f 55f
8:00  -   -   -  4 7 mph 1014.5mb 55f 55f
7:40  -   -   -  4 7 mph 1014.1mb 55f 55f
7:30  -   -   -  4 4 mph 1014mb 55f 55f
7:20  -   -   -  4 4 mph 1014mb 55f 55f
7:10  -   -   -  4 4 mph 1014mb 55f 55f
7:00  -   -   -  2 4 mph 1014mb 55f 55f
6:50 4.5ft 10s  -  2 4 mph 1013.9mb 55f 55f
6:40  -   -   -  2 4 mph 1013.9mb 55f 55f
6:30  -   -   -  2 4 mph 1013.6mb 55f 55f
6:20  -   -   -  2 4 mph 1013.6mb 55f 55f
6:10  -   -   -  4 4 mph 1013.5mb 55f 55f
6:00  -   -   -  2 4 mph 1013.5mb 55f 55f
5:50 4.5ft 11s  -  2 4 mph 1013.5mb 55f 55f
5:40  -   -   -  4 7 mph 1013.4mb 55f 55f
5:30  -   -   -  4 7 mph 1013.4mb 55f 55f
5:20  -   -   -  4 4 mph 1013.3mb 55f 55f
5:10  -   -   -  4 7 mph 1013.3mb 55f 55f
5:00  -   -   -  2 4 mph 1013.3mb 55f 56f
4:50 4.5ft 13s  -  2 2 mph 1013.3mb 55f 56f
4:40  -   -   -  2 2 mph 1013.1mb 55f 56f
4:30  -   -   -   -  2 mph 1013.1mb 55f 56f
4:20  -   -   -   -  2 mph 1013.1mb 55f 56f
4:10  -   -   -  2 2 mph 1013.1mb 55f 56f
4:00  -   -   -  2 4 mph 1013mb 55f 56f
3:50 4.5ft 10s 8s 2 4 mph 1013mb 55f 56f
3:40 4.5ft  -  8s 2 4 mph 1013mb 55f 56f
3:30  -   -   -  2 4 mph 1013mb 55f 56f
3:20  -   -   -  4 4 mph 1013mb 55f 56f
3:10  -   -   -  2 4 mph 1012.9mb 55f 56f
3:00  -   -   -  2 4 mph 1012.9mb - 56f
2:40  -   -   -  2 4 mph 1013mb 55f 56f
2:30  -   -   -  2 4 mph 1012.9mb 55f 56f
2:20  -   -   -  2 7 mph 1013mb 55f 56f
2:10  -   -   -  2 4 mph 1013mb 55f 56f
2:00  -   -   -  2 4 mph 1012.9mb 55f 56f
1:50 4.5ft 12s  -  2 4 mph 1012.8mb 55f 56f
1:40  -   -   -  2 4 mph 1012.8mb 55f 56f
1:30  -   -   -  2 4 mph 1012.6mb 55f 56f
1:20  -   -   -   -  2 mph 1012.6mb 55f 56f
1:10  -   -   -   -  2 mph 1012.5mb 55f 56f
1:00  -   -   -   -  2 mph 1012.6mb 55f 56f
12:50 5ft 12s  -   -  0 mph 1012.5mb 55f 56f
12:40  -   -   -   -  2 mph 1012.6mb 55f 56f
12:30  -   -   -   -  2 mph 1012.8mb 55f 56f
12:20  -   -   -   -  2 mph 1012.6mb 55f 56f
12:10  -   -   -  2 4 mph 1012.6mb 55f 56f
12:00  -   -   -  2 4 mph 1012.6mb 55f 56f
jeu. 05/25 11:40  -   -   -   -  2 mph 1012.8mb 56f 56f
11:30  -   -   -   -  2 mph 1012.6mb 55f 56f
11:20  -   -   -  2 4 mph 1012.5mb 55f 56f
11:10  -   -   -  2 2 mph 1012.5mb 55f 56f
11:00  -   -   -   -  2 mph 1012.5mb 55f 56f
10:40  -   -   -   -  4 mph 1012.5mb 55f 56f
10:30  -   -   -   -  4 mph 1012.4mb 55f 56f
10:20  -   -   -   -  2 mph 1012.3mb 55f 56f
10:00  -   -   -   -  2 mph 1012mb 55f 56f
9:50 5ft 10s  -   -  2 mph 1011.8mb 55f 56f
9:40  -   -   -  2 4 mph 1011.8mb 55f 56f
9:30  -   -   -  4 7 mph 1011.5mb 55f 56f
9:20  -   -   -  4 4 mph 1011.5mb 55f 56f
9:10  -   -   -  2 4 mph 1011.4mb 55f 56f
9:00  -   -   -  4 7 mph 1011.3mb 55f 56f
8:50 4.5ft 13s 9s 4 7 mph 1011.1mb 55f 56f
8:40 4.5ft  -  9s 2 4 mph 1011mb 55f 56f
8:30  -   -   -  2 4 mph 1011mb 55f 56f
8:20  -   -   -   -  2 mph 1011mb 55f 56f
8:10  -   -   -  2 4 mph 1010.9mb 55f 56f
8:00  -   -   -  2 4 mph 1010.8mb 55f 56f
7:40  -   -   -  4 7 mph 1010.6mb 55f 57f
7:30  -   -   -  7 7 mph 1010.6mb 55f 57f
7:20  -   -   -  4 7 mph 1010.5mb 55f 57f